sat.trackr.live / text

‹ back to catalog

GEESAT-4 04

NORAD 65122 · 2025-170D

PAYLOAD ACTIVE UNKNOWN

§ Identity

Operator
Country
PRC
Launch date
2025-08-08
Launch site
YSLA
Launch vehicle
Mass (kg)
RCS (m²)

External: N2YO · Heavens-Above · Gunter

§ Orbital elements

Epoch: 2026-09-21T22:44:33.503136Z

Period
97.14 min
Inclination
49.9714°
Eccentricity
0.0029377
Mean motion
14.82395529 rev/d
Perigee alt
601.2 km
Apogee alt
642.3 km
Semi-major
6,999.9 km
B*
1.2986e-4
RAAN
40.0327°
Arg perigee
324.1358°
Mean anomaly
35.7607°
Rev number
6,140

§ Raw data

GEESAT-4 041 65122U 25170D   26264.94760999  .00000827  00000+0  12986-3 0  99992 65122  49.9714  40.0327 0029377 324.1358  35.7607 14.82395529 61409

JSON: /api/v1/satellites/65122 · /tle

For live sub-satellite position, see the globe view (requires WebGL).

§ Visibility from observer

Set your observer location to see the next 7 days of passes ≥ 10°. The values pass through the URL so the page stays shareable.

No JS? Fill the form by hand. The geolocation button needs JavaScript.